When you browse on this site, cookies collect data to enhance your experience and personalize the content and advertising you see.
Visit our Privacy Policy to learn more. By continuing to use the site, you agree to this use of cookies and data.
  • In Lithuania
  • List of Countries
  • For 7 days
  • Water Temperature
  • Weather Map
  • Weather Widgets
  • user-avatar
    Login

    Hourly Weather Nuwejba

    Today, 17 February, Monday

    Time Temperature Precipitation Wind Pressure Humidity
    00:00 +9°C° 0 mm 2 mps 690 mmHg 75%
    01:00 +8°C° 0 mm 2 mps 690 mmHg 77%
    02:00 +9°C° 0 mm 1 mps 690 mmHg 82%
    03:00 +7°C° 0 mm 2 mps 690 mmHg 82%
    04:00 +7°C° 0 mm 2 mps 690 mmHg 81%
    05:00 +7°C° 0 mm 2 mps 690 mmHg 81%
    06:00 +8°C° 0 mm 2 mps 690 mmHg 77%
    07:00 +9°C° 0 mm 2 mps 691 mmHg 74%
    08:00 +10°C° 0 mm 2 mps 691 mmHg 70%
    09:00 +12°C° 0 mm 2 mps 691 mmHg 62%
    10:00 +14°C° 0 mm 2 mps 691 mmHg 53%
    11:00 +14°C° 0 mm 3 mps 692 mmHg 45%
    12:00 +16°C° 0 mm 2 mps 691 mmHg 41%
    13:00 +17°C° 0 mm 2 mps 691 mmHg 37%
    14:00 +18°C° 0 mm 2 mps 690 mmHg 32%
    15:00 +18°C° 0 mm 2 mps 690 mmHg 34%
    16:00 +17°C° 0 mm 3 mps 690 mmHg 36%
    17:00 +17°C° 0 mm 3 mps 690 mmHg 38%
    18:00 +16°C° 0 mm 3 mps 690 mmHg 45%
    19:00 +13°C° 0 mm 3 mps 690 mmHg 53%
    20:00 +12°C° 0 mm 3 mps 690 mmHg 60%
    21:00 +11°C° 0 mm 3 mps 690 mmHg 66%
    22:00 +10°C° 0 mm 2 mps 690 mmHg 72%
    23:00 +9°C° 0 mm 2 mps 690 mmHg 79%

    Tomorrow, 18 February, Tuesday

    Time Temperature Precipitation Wind Pressure Humidity
    00:00 +9°C° 0 mm 2 mps 690 mmHg 80%
    01:00 +8°C° 0 mm 2 mps 689 mmHg 81%
    02:00 +8°C° 0 mm 2 mps 689 mmHg 82%
    03:00 +8°C° 0 mm 2 mps 689 mmHg 83%
    04:00 +7°C° 0 mm 2 mps 689 mmHg 83%
    05:00 +8°C° 0 mm 1 mps 689 mmHg 84%
    06:00 +9°C° 0 mm 1 mps 689 mmHg 78%
    07:00 +10°C° 0 mm 1 mps 690 mmHg 72%
    08:00 +11°C° 0 mm 1 mps 690 mmHg 66%
    09:00 +13°C° 0 mm 1 mps 690 mmHg 57%
    10:00 +14°C° 0 mm 2 mps 691 mmHg 49%
    11:00 +16°C° 0 mm 2 mps 691 mmHg 41%
    12:00 +17°C° 0 mm 2 mps 691 mmHg 37%
    13:00 +18°C° 0 mm 3 mps 690 mmHg 34%
    14:00 +19°C° 0 mm 3 mps 690 mmHg 31%
    15:00 +18°C° 0 mm 3 mps 690 mmHg 34%
    16:00 +17°C° 0 mm 3 mps 690 mmHg 38%
    17:00 +16°C° 0 mm 3 mps 690 mmHg 42%
    18:00 +16°C° 0 mm 3 mps 690 mmHg 47%
    19:00 +14°C° 0 mm 3 mps 690 mmHg 52%
    20:00 +13°C° 0 mm 4 mps 691 mmHg 56%
    21:00 +13°C° 0.1 mm 3 mps 690 mmHg 61%
    22:00 +12°C° 0.1 mm 3 mps 690 mmHg 65%
    23:00 +12°C° 0.1 mm 3 mps 690 mmHg 69%

    Day after tomorrow, 19 February, Wednesday

    Time Temperature Precipitation Wind Pressure Humidity
    00:00 +11°C° 0.1 mm 3 mps 690 mmHg 71%
    01:00 +11°C° 0.1 mm 3 mps 690 mmHg 73%
    02:00 +10°C° 0.1 mm 3 mps 689 mmHg 75%
    03:00 +10°C° 0.1 mm 3 mps 689 mmHg 75%
    04:00 +9°C° 0.1 mm 3 mps 689 mmHg 75%
    05:00 +8°C° 0.1 mm 4 mps 689 mmHg 75%
    06:00 +8°C° 0 mm 4 mps 689 mmHg 71%
    07:00 +10°C° 0 mm 4 mps 689 mmHg 67%
    08:00 +10°C° 0 mm 4 mps 690 mmHg 62%
    09:00 +10°C° 0 mm 5 mps 690 mmHg 55%
    10:00 +12°C° 0 mm 5 mps 690 mmHg 48%
    11:00 +14°C° 0 mm 6 mps 690 mmHg 41%
    12:00 +14°C° 0 mm 7 mps 690 mmHg 41%
    13:00 +14°C° 0 mm 7 mps 690 mmHg 40%
    14:00 +15°C° 0 mm 8 mps 690 mmHg 39%
    15:00 +13°C° 0 mm 9 mps 690 mmHg 44%
    16:00 +12°C° 0 mm 9 mps 690 mmHg 49%
    17:00 +11°C° 0 mm 10 mps 690 mmHg 54%
    18:00 +10°C° 0 mm 9 mps 690 mmHg 58%
    19:00 +10°C° 0 mm 8 mps 690 mmHg 62%
    20:00 +9°C° 0 mm 8 mps 691 mmHg 66%
    21:00 +9°C° 0 mm 7 mps 691 mmHg 70%
    22:00 +8°C° 0 mm 6 mps 691 mmHg 74%
    23:00 +7°C° 0 mm 6 mps 691 mmHg 79%

    20 February, Thursday

    Time Temperature Precipitation Wind Pressure Humidity
    00:00 +7°C° 0 mm 6 mps 691 mmHg 80%
    01:00 +7°C° 0 mm 5 mps 691 mmHg 81%
    02:00 +7°C° 0 mm 5 mps 691 mmHg 82%
    03:00 +7°C° 0 mm 5 mps 691 mmHg 80%
    04:00 +7°C° 0 mm 4 mps 692 mmHg 79%
    05:00 +8°C° 0 mm 4 mps 692 mmHg 77%
    06:00 +8°C° 0 mm 4 mps 692 mmHg 75%
    07:00 +8°C° 0 mm 4 mps 692 mmHg 73%
    08:00 +8°C° 0 mm 4 mps 693 mmHg 71%
    09:00 +11°C° 0 mm 4 mps 693 mmHg 64%
    10:00 +12°C° 0 mm 4 mps 694 mmHg 56%
    11:00 +13°C° 0 mm 4 mps 694 mmHg 49%
    12:00 +14°C° 0 mm 3 mps 693 mmHg 44%
    13:00 +16°C° 0 mm 3 mps 693 mmHg 39%
    14:00 +17°C° 0 mm 3 mps 693 mmHg 35%
    15:00 +16°C° 0 mm 3 mps 693 mmHg 37%
    16:00 +16°C° 0 mm 3 mps 693 mmHg 39%
    17:00 +14°C° 0 mm 3 mps 692 mmHg 42%
    18:00 +13°C° 0 mm 3 mps 692 mmHg 47%
    19:00 +13°C° 0 mm 2 mps 692 mmHg 52%
    20:00 +11°C° 0 mm 1 mps 692 mmHg 57%
    21:00 +11°C° 0 mm 1 mps 692 mmHg 60%
    22:00 +10°C° 0 mm 1 mps 692 mmHg 62%
    23:00 +10°C° 0 mm 1 mps 692 mmHg 64%

    21 February, Friday

    Time Temperature Precipitation Wind Pressure Humidity
    00:00 +9°C° 0 mm 1 mps 692 mmHg 65%
    01:00 +9°C° 0 mm 1 mps 691 mmHg 65%
    02:00 +9°C° 0 mm 1 mps 691 mmHg 66%
    03:00 +8°C° 0 mm 1 mps 691 mmHg 67%
    04:00 +8°C° 0 mm 1 mps 691 mmHg 68%
    05:00 +7°C° 0 mm 1 mps 691 mmHg 69%
    06:00 +9°C° 0 mm 1 mps 691 mmHg 62%
    07:00 +10°C° 0 mm 1 mps 692 mmHg 54%
    08:00 +12°C° 0 mm 1 mps 692 mmHg 46%
    15:00 +19°C° 0 mm 3 mps 691 mmHg 26%
    16:00 +18°C° 0 mm 3 mps 691 mmHg 28%
    17:00 +17°C° 0 mm 3 mps 691 mmHg 31%
    18:00 +16°C° 0 mm 3 mps 691 mmHg 33%
    19:00 +13°C° 0 mm 3 mps 691 mmHg 35%
    20:00 +12°C° 0 mm 3 mps 690 mmHg 38%
    21:00 +11°C° 0 mm 3 mps 691 mmHg 40%
    22:00 +11°C° 0 mm 3 mps 691 mmHg 41%
    23:00 +11°C° 0 mm 4 mps 691 mmHg 43%

    22 February, Saturday

    Time Temperature Precipitation Wind Pressure Humidity
    00:00 +10°C° 0 mm 4 mps 691 mmHg 51%
    01:00 +8°C° 0 mm 5 mps 691 mmHg 59%
    02:00 +8°C° 0 mm 5 mps 690 mmHg 67%
    03:00 +7°C° 0 mm 5 mps 690 mmHg 71%
    04:00 +7°C° 0 mm 4 mps 691 mmHg 75%
    05:00 +6°C° 0 mm 4 mps 691 mmHg 79%
    06:00 +7°C° 0 mm 4 mps 691 mmHg 73%
    07:00 +7°C° 0 mm 5 mps 691 mmHg 68%
    08:00 +7°C° 0 mm 6 mps 692 mmHg 63%
    09:00 +8°C° 0 mm 6 mps 692 mmHg 58%
    10:00 +10°C° 0 mm 6 mps 692 mmHg 54%
    11:00 +11°C° 0 mm 6 mps 692 mmHg 50%
    12:00 +11°C° 0 mm 6 mps 692 mmHg 49%
    13:00 +13°C° 0 mm 6 mps 692 mmHg 48%
    14:00 +13°C° 0 mm 6 mps 691 mmHg 47%
    15:00 +11°C° 0 mm 6 mps 691 mmHg 49%
    16:00 +11°C° 0 mm 6 mps 691 mmHg 51%
    17:00 +10°C° 0 mm 7 mps 691 mmHg 53%
    18:00 +10°C° 0 mm 6 mps 691 mmHg 58%
    19:00 +9°C° 0 mm 5 mps 692 mmHg 63%
    20:00 +8°C° 0 mm 5 mps 692 mmHg 67%
    21:00 +8°C° 0 mm 4 mps 692 mmHg 72%
    22:00 +7°C° 0 mm 4 mps 692 mmHg 76%
    23:00 +7°C° 0 mm 3 mps 692 mmHg 80%
    Show more